STARLINK-1839 (47130 NORAD) Tracking and Keplerian Element Data
This shows tracking and keplerian element data for the satellite.
Feedback or suggestion? Click here.
Element | Value |
Catalog | 47130 |
Name | STARLINK-1839 |
Epoch Orbit | 961 |
Epoch Day | 21.16668981 |
Epoch Year | 2021 |
RAAN | 82.1898 |
Inclination | 53.0554 |
Eccentricity | 0.0001403 |
Argument of Perigee | 49.3872 |
Mean Anonmoly | 277.1429 |
Mean Motion | 15.06383485 |
Decay Rate | 0.00018299 |
L1 | 1 47130U 20088J 21021.16668981 .00018299 00000-0 12447-2 0 9993 |
L2 | 2 47130 53.0554 82.1898 0001403 49.3872 277.1429 15.06383485 9617 |
Live tracking and technical data element details for STARLINK-1839 (NORAD 47130). STARLINK-1839 can be tracked NOW for your location showing map with azimuth and elevation plus other details from your city location.
Track the satellite on the map from your city or location and see movement details for azimuth, elevation, latitude, longitude, range, height, and movement on the map or in text.
IsCatalogInMostPopularTable: catalog: 47130, numindb: 15
Update: records affected: 1
GetName: 47130 STARLINK-1839
Hit Count: updated at: Sat, 23 Jan 2021 18:27:03 GMT